CW5896 Princeton NJ US current weather conditions

sailwx.info

Wind from 260 at 3 knots

Air temperature 3.9° C
Dewpoint -2.9° C

Last reported at 2020-Jan-28 22:09 UTC.
Time now 2020-Jan-28 23:17 UTC

Location: N 40°21' W 074°36'.
View on Google Maps.

See reports from other nearby stations

  
Tides and Currents Weather Stations Pressure Air Temp Water Temp Dewpoint Dewpoint Depression Visibility Wind Speed Wind Dir Waves Ship Positions
date/time (UTC)wind fromknots sea level pressurealtimeterstation pressurevisibilityair tempwater tempwave heightnotes
2020-Jan-28 23:04 299 4 3.9
2020-Jan-28 22:59 319 3 3.9
2020-Jan-28 22:55 252 4 3.9
2020-Jan-28 22:49 321 4 3.9
2020-Jan-28 22:44 278 3 3.9
2020-Jan-28 22:40 291 2 3.9
2020-Jan-28 22:34 252 3 3.9
2020-Jan-28 22:29 277 5 3.9
2020-Jan-28 22:24 235 4 3.9
2020-Jan-28 22:19 242 4 3.9
2020-Jan-28 22:14 282 3 3.9
2020-Jan-28 22:09 260 3 3.9
2020-Jan-28 22:04 224 3 3.9
2020-Jan-28 21:59 314 3 3.9
2020-Jan-28 21:54 320 4 3.9
2020-Jan-28 21:49 292 5 3.9
2020-Jan-28 21:44 294 5 3.9
2020-Jan-28 21:39 313 4 3.9
2020-Jan-28 21:34 271 1 3.9
2020-Jan-28 21:29 269 2 3.9
2020-Jan-28 21:24 290 2 3.9
2020-Jan-28 21:19 265 3 3.9
2020-Jan-28 21:14 345 3 3.9
2020-Jan-28 21:09 296 3 3.9
2020-Jan-28 21:04 272 3 3.9
2020-Jan-28 20:59 309 3 3.9
2020-Jan-28 20:54 333 5 3.9
2020-Jan-28 20:49 257 4 3.9
2020-Jan-28 20:44 303 4 3.9
2020-Jan-28 20:39 301 2 3.9
2020-Jan-28 20:34 275 1 3.9
2020-Jan-28 20:29 313 1 3.9
2020-Jan-28 20:24 311 2 3.9
2020-Jan-28 20:19 307 3 3.9
2020-Jan-28 20:14 257 5 3.9
2020-Jan-28 20:09 301 5 3.9
2020-Jan-28 20:04 325 5 3.9
2020-Jan-28 19:59 280 4 3.9
2020-Jan-28 19:54 279 5 3.9
2020-Jan-28 19:49 308 4 3.9
2020-Jan-28 19:44 288 2 3.9
2020-Jan-28 19:39 286 3 3.9
2020-Jan-28 19:34 307 3 3.9
2020-Jan-28 19:29 237 3 3.9
2020-Jan-28 19:24 294 3 3.9
2020-Jan-28 19:19 273 4 3.9
2020-Jan-28 19:15 269 4 3.9
2020-Jan-28 19:09 255 4 3.9
2020-Jan-28 19:04 272 6 3.9
2020-Jan-28 18:59 331 6 3.9
2020-Jan-28 18:54 269 4 4.4
2020-Jan-28 18:49 281 5 4.4
2020-Jan-28 18:44 272 6 3.9
2020-Jan-28 18:39 284 6 4.4
2020-Jan-28 18:34 307 6 4.4
2020-Jan-28 18:29 283 6 4.4
2020-Jan-28 18:24 345 6 4.4
2020-Jan-28 18:19 296 6 4.4
2020-Jan-28 18:14 259 6 5.0
2020-Jan-28 18:09 285 6 5.6
2020-Jan-28 18:04 284 6 5.0
2020-Jan-28 17:59 291 7 5.0
2020-Jan-28 17:54 249 7 5.0
2020-Jan-28 17:49 279 7 5.0
2020-Jan-28 17:44 278 6 5.6
2020-Jan-28 17:39 274 5 5.6
2020-Jan-28 17:34 311 6 5.6
2020-Jan-28 17:29 288 7 5.6
2020-Jan-28 17:24 207 7 5.6
2020-Jan-28 17:19 254 7 5.6
2020-Jan-28 17:14 238 7 5.6
2020-Jan-28 17:09 226 8 5.6
2020-Jan-28 17:04 293 8 5.0
2020-Jan-28 16:59 275 6 5.0
2020-Jan-28 16:54 301 6 5.0
2020-Jan-28 16:49 291 7 5.6
2020-Jan-28 16:44 276 6 5.0
2020-Jan-28 16:39 246 6 5.0
2020-Jan-28 16:34 290 6 5.0
2020-Jan-28 16:29 314 7 5.6
2020-Jan-28 16:24 291 8 5.0
2020-Jan-28 16:19 276 7 5.6
2020-Jan-28 16:14 292 8 5.0
2020-Jan-28 16:09 287 8 5.0
2020-Jan-28 16:04 312 7 5.0
2020-Jan-28 15:59 277 6 5.6
2020-Jan-28 15:54 311 6 5.0
2020-Jan-28 15:49 262 7 5.0
2020-Jan-28 15:44 233 6 5.0
2020-Jan-28 15:39 275 6 5.0
2020-Jan-28 15:34 315 6 5.0
2020-Jan-28 15:29 269 6 5.0
2020-Jan-28 15:24 345 6 5.0
2020-Jan-28 15:19 306 6 5.0
2020-Jan-28 15:14 295 6 5.0
2020-Jan-28 15:09 242 4 5.0
2020-Jan-28 15:04 296 5 5.0
2020-Jan-28 15:00 012 6 4.4
2020-Jan-28 14:54 287 6 4.4
2020-Jan-28 14:49 309 5 4.4
2020-Jan-28 14:43 276 5 4.4
2020-Jan-28 14:39 271 4 4.4
2020-Jan-28 14:34 257 6 4.4
2020-Jan-28 14:29 278 5 3.9
2020-Jan-28 14:23 297 3 4.4
2020-Jan-28 14:19 285 3 3.9
2020-Jan-28 14:14 319 3 3.9
2020-Jan-28 14:09 290 4 3.9
2020-Jan-28 14:05 292 4 3.9
2020-Jan-28 13:59 249 3 3.3
2020-Jan-28 13:54 272 2 3.3
2020-Jan-28 13:49 262 2 3.3
2020-Jan-28 13:43 345 3 3.3
2020-Jan-28 13:39 263 2 2.8
2020-Jan-28 13:34 280 2 2.8
2020-Jan-28 13:29 283 2 2.8
2020-Jan-28 13:25 285 2 2.8
2020-Jan-28 13:19 306 3 2.2
2020-Jan-28 13:14 272 2 2.2
2020-Jan-28 13:09 203 2 2.2
2020-Jan-28 13:03 229 2 2.2
2020-Jan-28 12:59 255 2 2.2
2020-Jan-28 12:54 246 1 2.2
2020-Jan-28 12:49 271 2 1.7
2020-Jan-28 12:43 259 2 1.7
2020-Jan-28 12:39 270 1 1.7
2020-Jan-28 12:34 247 1 1.7
2020-Jan-28 12:29 266 2 1.7
2020-Jan-28 12:23 263 2 1.7
2020-Jan-28 12:19 259 2 1.7
2020-Jan-28 12:14 257 1 1.7
2020-Jan-28 12:09 275 0 1.7
2020-Jan-28 12:03 239 0 1.7
2020-Jan-28 11:59 251 0 1.7
2020-Jan-28 11:54 257 0 2.2
2020-Jan-28 11:49 255 0 2.2
2020-Jan-28 11:43 246 0 2.2
2020-Jan-28 11:39 272 0 2.2
2020-Jan-28 11:34 241 2.2
2020-Jan-28 11:29 224 2.2
2020-Jan-28 11:23 268 2.2
2020-Jan-28 11:19 272 2.2
2020-Jan-28 11:14 281 2.8
2020-Jan-28 11:09 274 0 2.8
2020-Jan-28 11:05 278 1 2.8
2020-Jan-28 10:59 276 1 2.8
2020-Jan-28 10:54 265 2 2.8
2020-Jan-28 10:49 232 1 2.8
2020-Jan-28 10:43 279 1 2.8
2020-Jan-28 10:39 307 1 2.8
2020-Jan-28 10:34 260 1 2.8
2020-Jan-28 10:29 278 2 2.8
2020-Jan-28 10:25 283 2 2.8
2020-Jan-28 10:19 282 2 2.8
2020-Jan-28 10:14 306 3 2.8
2020-Jan-28 10:09 282 3 2.8
2020-Jan-28 10:05 273 1 2.8
2020-Jan-28 09:59 286 1 2.8
2020-Jan-28 09:54 317 1 2.8
2020-Jan-28 09:49 283 1 2.8
2020-Jan-28 09:45 242 0 2.8
2020-Jan-28 09:39 310 0 2.8
2020-Jan-28 09:34 268 1 2.8
2020-Jan-28 09:29 301 2 2.8
2020-Jan-28 09:23 315 2 2.8
2020-Jan-28 09:19 296 2 2.8
2020-Jan-28 09:14 273 2 2.8
2020-Jan-28 09:09 323 3 2.8
2020-Jan-28 09:05 279 2 2.8
2020-Jan-28 08:59 271 1 2.8
2020-Jan-28 08:54 302 1 2.8
2020-Jan-28 08:49 318 1 3.3
2020-Jan-28 08:43 284 1 2.8
2020-Jan-28 08:39 295 1 3.3
2020-Jan-28 08:34 292 2 3.3
2020-Jan-28 08:29 311 1 2.8
2020-Jan-28 08:23 262 1 3.3
2020-Jan-28 08:19 286 1 3.3
2020-Jan-28 08:14 292 1 3.3
2020-Jan-28 08:09 311 1 3.3
2020-Jan-28 08:05 269 2 3.3
2020-Jan-28 07:59 246 1 3.3
2020-Jan-28 07:54 286 1 3.3
2020-Jan-28 07:49 280 0 3.3
2020-Jan-28 07:45 271 0 3.3
2020-Jan-28 07:39 309 1 3.3
2020-Jan-28 07:34 003 3 3.3
2020-Jan-28 07:29 292 3 3.3
2020-Jan-28 07:23 020 3 3.3
2020-Jan-28 07:19 220 3 3.3
2020-Jan-28 07:14 333 4 3.3
2020-Jan-28 07:09 288 4 3.3
2020-Jan-28 07:05 310 4 3.3
2020-Jan-28 06:59 303 4 3.3
2020-Jan-28 06:54 294 4 3.3
2020-Jan-28 06:49 290 4 3.3
2020-Jan-28 06:45 299 4 3.9
2020-Jan-28 06:39 223 3 3.9
2020-Jan-28 06:34 256 3 3.3
2020-Jan-28 06:29 281 2 3.3
2020-Jan-28 06:23 268 1 3.9
2020-Jan-28 06:19 274 1 3.9
2020-Jan-28 06:14 280 1 3.9
2020-Jan-28 06:09 285 2 3.9
2020-Jan-28 06:05 293 2 3.9
2020-Jan-28 05:59 270 1 3.9
2020-Jan-28 05:54 290 2 3.9
2020-Jan-28 05:49 272 1 3.9
2020-Jan-28 05:43 274 0 3.9
2020-Jan-28 05:39 235 1 3.9
2020-Jan-28 05:34 304 1 3.9
2020-Jan-28 05:29 250 1 3.9
2020-Jan-28 05:23 282 0 3.9
2020-Jan-28 05:19 277 1 3.9
2020-Jan-28 05:14 257 0 3.9
2020-Jan-28 05:09 262 1 3.9
2020-Jan-28 05:03 265 1 3.9
2020-Jan-28 04:59 288 1 3.9
2020-Jan-28 04:54 290 1 3.9
2020-Jan-28 04:49 306 1 3.9
2020-Jan-28 04:43 293 2 3.9
2020-Jan-28 04:39 242 1 3.9
2020-Jan-28 04:34 278 1 4.4
2020-Jan-28 04:29 296 1 4.4
2020-Jan-28 04:25 275 1 4.4
2020-Jan-28 04:19 294 1 4.4
2020-Jan-28 04:14 257 1 4.4
2020-Jan-28 04:09 299 2 4.4
2020-Jan-28 04:03 267 1 4.4
2020-Jan-28 03:59 293 1 4.4
2020-Jan-28 03:54 288 2 4.4
2020-Jan-28 03:49 294 2 4.4
2020-Jan-28 03:43 313 2 4.4
2020-Jan-28 03:39 264 2 4.4
2020-Jan-28 03:34 291 1 4.4
2020-Jan-28 03:29 190 0 4.4
2020-Jan-28 03:25 224 0 4.4
2020-Jan-28 03:19 278 1 4.4
2020-Jan-28 03:14 272 0 4.4
2020-Jan-28 03:09 289 0 4.4
2020-Jan-28 03:03 296 0 4.4
2020-Jan-28 02:59 244 0 4.4
2020-Jan-28 02:54 227 0 4.4
2020-Jan-28 02:49 265 0 4.4
2020-Jan-28 02:44 245 0 4.4
2020-Jan-28 02:39 274 0 4.4
2020-Jan-28 02:34 248 0 4.4
2020-Jan-28 02:29 258 4.4
2020-Jan-28 02:25 257 4.4
2020-Jan-28 02:19 291 0 4.4
2020-Jan-28 02:14 242 0 4.4
2020-Jan-28 02:10 262 4.4
2020-Jan-28 02:04 260 0 4.4
2020-Jan-28 02:00 276 0 4.4
2020-Jan-28 01:54 235 0 4.4
2020-Jan-28 01:49 272 0 4.4
2020-Jan-28 01:44 252 4.4
2020-Jan-28 01:40 239 0 5.0
2020-Jan-28 01:34 282 0 5.0
2020-Jan-28 01:30 212 1 5.0
2020-Jan-28 01:24 246 1 5.0
2020-Jan-28 01:19 276 1 5.0
2020-Jan-28 01:14 251 1 5.0
2020-Jan-28 01:09 211 1 5.0
2020-Jan-28 01:04 247 0 5.0
2020-Jan-28 00:59 264 0 5.0
2020-Jan-28 00:54 234 0 5.0
2020-Jan-28 00:49 205 0 5.0
2020-Jan-28 00:44 231 1 5.0
2020-Jan-28 00:39 231 0 5.0
2020-Jan-28 00:35 249 0 5.0
2020-Jan-28 00:29 266 0 5.0
2020-Jan-28 00:24 257 0 5.0
2020-Jan-28 00:19 278 0 5.0
2020-Jan-28 00:14 219 0 5.0
2020-Jan-28 00:09 218 1 5.0
2020-Jan-28 00:04 228 0 5.0
2020-Jan-27 23:59 263 0 5.0
2020-Jan-27 23:54 226 0 5.0
2020-Jan-27 23:49 205 0 5.0
2020-Jan-27 23:44 254 0 5.0
2020-Jan-27 23:39 265 0 5.6
2020-Jan-27 23:34 233 1 5.6
2020-Jan-27 23:29 236 0 5.6
2020-Jan-27 23:24 273 0 5.6
2020-Jan-27 23:19 271 1 5.6
2020-Jan-27 23:15 267 2 5.6
2020-Jan-27 23:09 292 2 5.6
2020-Jan-27 23:04 276 2 5.6
2020-Jan-27 23:00 226 2 5.6
2020-Jan-27 22:54 272 2 5.6
2020-Jan-27 22:49 279 3 6.1
2020-Jan-27 22:44 267 3 6.1
2020-Jan-27 22:39 294 2 6.1
2020-Jan-27 22:34 238 1 6.1
2020-Jan-27 22:29 278 0 6.1
2020-Jan-27 22:24 267 2 6.1
2020-Jan-27 22:19 278 3 6.1
2020-Jan-27 22:14 242 3 6.1
2020-Jan-27 22:09 277 2 6.1
2020-Jan-27 22:04 285 1 6.1
2020-Jan-27 21:59 282 2 6.1
2020-Jan-27 21:54 250 2 6.1
2020-Jan-27 21:50 280 1 6.1
2020-Jan-27 21:44 293 2 6.1
2020-Jan-27 21:38 176 2 6.7
2020-Jan-27 21:34 277 2 6.7
2020-Jan-27 21:29 236 1 6.7
2020-Jan-27 21:24 222 2 6.7
2020-Jan-27 21:19 253 2 6.7
2020-Jan-27 21:14 247 2 6.7
2020-Jan-27 21:09 270 2 6.7
2020-Jan-27 21:04 256 2 6.7
2020-Jan-27 20:59 228 2 6.7
2020-Jan-27 20:54 255 2 6.7
2020-Jan-27 20:49 280 2 6.7
2020-Jan-27 20:44 230 1 6.7
2020-Jan-27 20:39 244 1 6.7
2020-Jan-27 20:34 296 2 6.7
2020-Jan-27 20:29 269 2 6.7
2020-Jan-27 20:24 267 2 6.1
2020-Jan-27 20:19 236 2 6.7
2020-Jan-27 20:14 233 2 6.7
2020-Jan-27 20:09 266 2 6.7
2020-Jan-27 20:04 231 3 6.7
2020-Jan-27 19:59 291 3 6.7
2020-Jan-27 19:54 179 2 6.7
2020-Jan-27 19:49 280 2 6.7
2020-Jan-27 19:44 268 3 6.7
2020-Jan-27 19:39 226 3 6.7
2020-Jan-27 19:34 238 3 6.1
2020-Jan-27 19:29 242 3 6.1
2020-Jan-27 19:24 256 2 6.1
2020-Jan-27 19:19 215 3 6.1
2020-Jan-27 19:14 247 2 6.1
2020-Jan-27 19:09 313 1 6.1
2020-Jan-27 19:04 263 2 6.1
2020-Jan-27 18:59 183 4 6.1
2020-Jan-27 18:54 238 3 6.1
2020-Jan-27 18:49 263 3 6.1
2020-Jan-27 18:44 286 3 6.1
2020-Jan-27 18:39 223 3 6.1
2020-Jan-27 18:34 269 2 6.1
2020-Jan-27 18:29 195 2 6.1
2020-Jan-27 18:24 178 3 6.1
2020-Jan-27 18:19 220 3 6.1
2020-Jan-27 18:14 239 3 6.1
2020-Jan-27 18:09 249 3 6.1
2020-Jan-27 18:04 235 2 6.1
2020-Jan-27 17:59 211 2 6.1
2020-Jan-27 17:54 244 3 6.1
2020-Jan-27 17:49 198 3 6.1
2020-Jan-27 17:44 216 2 6.1
2020-Jan-27 17:39 252 3 5.6
2020-Jan-27 17:34 222 4 5.6
2020-Jan-27 17:29 252 4 5.6
2020-Jan-27 17:24 220 4 5.6
2020-Jan-27 17:19 127 4 5.6
2020-Jan-27 17:14 271 3 5.6
2020-Jan-27 17:09 223 2 5.6
2020-Jan-27 17:04 203 3 5.6
2020-Jan-27 16:59 165 4 5.6
2020-Jan-27 16:54 265 3 5.6
2020-Jan-27 16:49 224 3 5.6
2020-Jan-27 16:44 133 3 5.6
2020-Jan-27 16:39 226 2 5.6
2020-Jan-27 16:34 193 1 5.6
2020-Jan-27 16:29 279 3 5.6
2020-Jan-27 16:24 173 4 5.6
2020-Jan-27 16:19 228 4 5.6
2020-Jan-27 16:14 264 4 5.6
2020-Jan-27 16:09 213 4 5.6
2020-Jan-27 16:04 228 4 5.6
2020-Jan-27 15:59 198 4 5.6
2020-Jan-27 15:54 174 3 5.6
2020-Jan-27 15:49 247 3 5.6
2020-Jan-27 15:44 175 4 5.0
2020-Jan-27 15:39 184 3 5.0
2020-Jan-27 15:34 235 3 5.0
2020-Jan-27 15:30 263 3 5.0
2020-Jan-27 15:24 207 4 5.6
2020-Jan-27 15:19 219 4 5.0
2020-Jan-27 15:14 238 2 5.0
2020-Jan-27 15:09 235 2 5.6
2020-Jan-27 15:04 278 2 5.0
2020-Jan-27 14:59 243 2 5.0
2020-Jan-27 14:54 218 2 5.0
2020-Jan-27 14:49 175 2 5.0
2020-Jan-27 14:44 236 3 5.0
2020-Jan-27 14:39 171 4 5.0
2020-Jan-27 14:34 200 3 5.0
2020-Jan-27 14:29 162 2 5.0
2020-Jan-27 14:24 210 2 5.0
2020-Jan-27 14:19 143 2 5.0
2020-Jan-27 14:14 182 3 4.4
2020-Jan-27 14:09 208 2 4.4
2020-Jan-27 14:04 194 1 4.4
2020-Jan-27 13:59 197 1 4.4
2020-Jan-27 13:54 184 1 4.4
2020-Jan-27 13:49 184 3 4.4
2020-Jan-27 13:44 190 3 3.9
2020-Jan-27 13:39 239 2 4.4
2020-Jan-27 13:34 153 0 4.4
2020-Jan-27 13:29 246 0 4.4
2020-Jan-27 13:24 177 1 3.9
2020-Jan-27 13:19 134 1 3.9
2020-Jan-27 13:14 161 1 3.9
2020-Jan-27 13:09 186 2 3.9
2020-Jan-27 13:04 224 3 3.9
2020-Jan-27 12:59 171 2 3.9
2020-Jan-27 12:54 169 1 3.9
2020-Jan-27 12:49 163 3 3.9
2020-Jan-27 12:44 199 3 3.3
2020-Jan-27 12:39 183 2 3.3
2020-Jan-27 12:34 188 2 3.3
2020-Jan-27 12:29 170 1 3.3
2020-Jan-27 12:24 195 1 3.3
2020-Jan-27 12:19 174 1 2.8
2020-Jan-27 12:14 246 2 2.8
2020-Jan-27 12:09 205 2 2.8
2020-Jan-27 12:04 222 2 2.8
2020-Jan-27 11:59 229 0 3.3
2020-Jan-27 11:54 184 1 3.3
2020-Jan-27 11:49 209 1 3.3
2020-Jan-27 11:44 187 1 3.3
2020-Jan-27 11:39 193 1 3.3
2020-Jan-27 11:34 177 1 3.3
2020-Jan-27 11:29 170 1 3.3
2020-Jan-27 11:24 168 0 2.8
2020-Jan-27 11:19 178 2.8
2020-Jan-27 11:14 196 0 2.8
2020-Jan-27 11:09 199 0 2.8
2020-Jan-27 11:04 173 0 2.8
2020-Jan-27 10:59 190 2.8
2020-Jan-27 10:53 183 2.8
2020-Jan-27 10:49 178 2.8
2020-Jan-27 10:44 184 0 2.8
2020-Jan-27 10:39 197 0 3.3
2020-Jan-27 10:34 198 1 3.3
2020-Jan-27 10:29 207 0 3.3
2020-Jan-27 10:24 168 0 3.3
2020-Jan-27 10:19 178 0 3.3
2020-Jan-27 10:14 160 0 2.8
2020-Jan-27 10:09 172 0 2.8
2020-Jan-27 10:04 188 0 2.8
2020-Jan-27 09:59 157 1 2.8
2020-Jan-27 09:54 169 1 2.8
2020-Jan-27 09:49 166 1 2.8
2020-Jan-27 09:44 228 2 2.2
2020-Jan-27 09:39 209 2 2.2
2020-Jan-27 09:34 199 2 2.2
2020-Jan-27 09:29 200 2 2.2
2020-Jan-27 09:24 215 2 2.2
2020-Jan-27 09:19 249 2 2.2
2020-Jan-27 09:14 190 2 2.2
2020-Jan-27 09:09 207 3 2.2
2020-Jan-27 09:04 233 3 2.2
2020-Jan-27 08:59 220 3 2.2
2020-Jan-27 08:54 215 3 2.2
2020-Jan-27 08:49 242 3 2.2
2020-Jan-27 08:44 199 3 2.2
2020-Jan-27 08:39 224 2 2.2
2020-Jan-27 08:34 178 2 2.2
2020-Jan-27 08:29 180 1 1.7
2020-Jan-27 08:24 240 1 1.7
2020-Jan-27 08:19 216 1 1.7
2020-Jan-27 08:14 243 2 1.7
2020-Jan-27 08:09 205 2 1.7
2020-Jan-27 08:04 223 1 1.7
2020-Jan-27 07:59 244 1 1.7
2020-Jan-27 07:54 186 1 1.7
2020-Jan-27 07:49 211 2 1.7
2020-Jan-27 07:44 191 2 2.2
2020-Jan-27 07:39 129 2 2.2
2020-Jan-27 07:34 173 1 1.7
2020-Jan-27 07:29 182 1.7
2020-Jan-27 07:24 183 1.7
2020-Jan-27 07:19 184 1.7
2020-Jan-27 07:14 201 0 1.7
2020-Jan-27 07:09 180 0 1.7
2020-Jan-27 07:04 195 0 1.7
2020-Jan-27 06:59 202 0 1.7
2020-Jan-27 06:54 208 1 1.7
2020-Jan-27 06:49 165 0 1.7
2020-Jan-27 06:44 174 2.2
2020-Jan-27 06:39 172 2.2
2020-Jan-27 06:34 173 2.2
2020-Jan-27 06:29 172 2.2
2020-Jan-27 06:24 168 2.2
2020-Jan-27 06:19 178 1.7
2020-Jan-27 06:14 178 1.7
2020-Jan-27 06:09 175 2.2
2020-Jan-27 06:04 175 2.2
2020-Jan-27 05:59 160 2.2
2020-Jan-27 05:54 159 2.2
2020-Jan-27 05:49 156 0 2.2
2020-Jan-27 05:44 150 0 2.2
2020-Jan-27 05:39 171 2.8
2020-Jan-27 05:34 176 2.8
2020-Jan-27 05:29 178 2.8
2020-Jan-27 05:24 177 2.8
2020-Jan-27 05:19 181 2.8
2020-Jan-27 05:14 180 2.8
2020-Jan-27 05:09 184 2.8
2020-Jan-27 05:04 186 2.8
2020-Jan-27 04:59 186 2.8
2020-Jan-27 04:54 188 2.8
2020-Jan-27 04:49 180 2.8
2020-Jan-27 04:44 176 0 2.8
2020-Jan-27 04:39 218 0 2.2
2020-Jan-27 04:34 232 1 2.2
2020-Jan-27 04:29 199 0 2.8
2020-Jan-27 04:24 191 1 2.2
2020-Jan-27 04:19 194 1 2.2
2020-Jan-27 04:14 208 0 2.2
2020-Jan-27 04:09 209 2.2
2020-Jan-27 04:04 245 2.2
2020-Jan-27 03:59 245 2.2
2020-Jan-27 03:54 245 2.8
2020-Jan-27 03:49 245 2.8
2020-Jan-27 03:44 245 3.3
2020-Jan-27 03:39 245 3.3
2020-Jan-27 03:34 245 3.3
2020-Jan-27 03:29 245 3.9
2020-Jan-27 03:24 245 3.9
2020-Jan-27 03:19 245 3.9
2020-Jan-27 03:14 245 3.9
2020-Jan-27 03:09 245 3.9
2020-Jan-27 03:04 245 3.9
2020-Jan-27 02:59 245 3.9
2020-Jan-27 02:54 245 3.9
2020-Jan-27 02:49 245 3.9
2020-Jan-27 02:44 245 3.3
2020-Jan-27 02:39 245 3.3
2020-Jan-27 02:34 245 3.3
2020-Jan-27 02:29 245 3.3
2020-Jan-27 02:23 245 3.3
2020-Jan-27 02:19 245 3.9
2020-Jan-27 02:14 245 3.9
2020-Jan-27 02:09 245 0 3.9
2020-Jan-27 02:04 245 0 3.9
2020-Jan-27 01:59 258 0 3.9
2020-Jan-27 01:55 261 3.9
2020-Jan-27 01:49 261 0 3.9
2020-Jan-27 01:44 261 0 3.9
2020-Jan-27 01:39 224 1 3.9
2020-Jan-27 01:34 234 1 3.9
2020-Jan-27 01:29 205 1 3.9
2020-Jan-27 01:24 243 0 3.9
2020-Jan-27 01:19 260 1 3.9
2020-Jan-27 01:14 274 1 3.9
2020-Jan-27 01:09 228 0 3.9
2020-Jan-27 01:04 281 0 4.4
2020-Jan-27 00:59 252 1 4.4
2020-Jan-27 00:54 245 0 4.4
2020-Jan-27 00:49 248 0 4.4
2020-Jan-27 00:44 311 0 4.4
2020-Jan-27 00:39 182 0 4.4
2020-Jan-27 00:34 264 0 4.4
2020-Jan-27 00:29 245 1 4.4
2020-Jan-27 00:24 263 0 4.4
2020-Jan-27 00:19 257 1 5.0
2020-Jan-27 00:14 261 2 5.0
2020-Jan-27 00:09 253 1 5.0
2020-Jan-27 00:04 253 1 5.0
2020-Jan-26 23:59 262 1 5.6
2020-Jan-26 23:54 305 1 5.6
2020-Jan-26 23:49 256 1 5.6
2020-Jan-26 23:44 236 2 5.6
2020-Jan-26 23:39 284 4 5.6
2020-Jan-26 23:34 219 4 6.1
2020-Jan-26 23:29 276 4 6.1
2020-Jan-26 23:24 240 4 6.1
2020-Jan-26 23:19 233 4 6.1
2020-Jan-26 23:14 280 4 6.1
2020-Jan-26 23:09 213 3 6.1
2020-Jan-26 23:04 241 3 6.1